Time,TemperatureF,DewpointF,PressureIn,WindDirection,WindDirectionDegrees,WindSpeedMPH,WindSpeedGustMPH,Humidity,HourlyPrecipIn,Conditions,Clouds,dailyrainin,SoftwareType,DateUTC
2013-05-04 00:00:00,43.5,38.4,29.72,West,266,13.0,28.0,82,0.00,RA,,0.00,WeatherDisplay:10.37,2013-05-03 23:00:00,
2013-05-04 00:15:00,43.1,38.3,29.71,West,264,13.0,23.0,83,0.00,CLR,,0.00,WeatherDisplay:10.37,2013-05-03 23:15:00,
2013-05-04 00:30:00,43.0,37.8,29.71,West,264,13.0,24.0,82,0.00,CLR,,0.00,WeatherDisplay:10.37,2013-05-03 23:30:00,
2013-05-04 00:45:00,42.7,37.9,29.70,West,264,16.0,23.0,83,0.00,CLR,,0.00,WeatherDisplay:10.37,2013-05-03 23:45:00,
2013-05-04 01:00:00,42.7,38.2,29.70,WSW,255,12.0,25.0,84,0.00,CLR,,0.00,WeatherDisplay:10.37,2013-05-04 00:00:00,
2013-05-04 01:15:00,42.6,37.8,29.71,West,265,14.0,21.0,83,0.00,CLR,,0.00,WeatherDisplay:10.37,2013-05-04 00:15:00,
2013-05-04 01:30:00,42.5,37.7,29.72,West,276,12.0,20.0,83,0.00,CLR,,0.00,WeatherDisplay:10.37,2013-05-04 00:30:00,
2013-05-04 01:45:00,42.4,37.6,29.71,West,264,14.0,23.0,83,0.00,CLR,,0.00,WeatherDisplay:10.37,2013-05-04 00:45:00,
2013-05-04 02:00:00,42.2,37.1,29.71,West,272,13.0,25.0,82,0.00,CLR,,0.00,WeatherDisplay:10.37,2013-05-04 01:00:00,
2013-05-04 02:15:00,42.0,36.9,29.72,West,278,12.0,23.0,82,0.00,CLR,,0.00,WeatherDisplay:10.37,2013-05-04 01:15:00,
2013-05-04 02:30:00,41.9,36.2,29.71,West,275,14.0,28.0,80,0.00,CLR,,0.00,WeatherDisplay:10.37,2013-05-04 01:30:00,
2013-05-04 02:45:00,41.6,36.2,29.72,West,270,6.0,17.0,81,0.00,CLR,,0.00,WeatherDisplay:10.37,2013-05-04 01:45:00,
2013-05-04 03:00:00,41.4,36.0,29.73,West,273,7.0,15.0,81,0.00,CLR,,0.00,WeatherDisplay:10.37,2013-05-04 02:00:00,
2013-05-04 03:15:00,41.4,36.3,29.72,West,260,9.0,16.0,82,0.00,CLR,,0.00,WeatherDisplay:10.37,2013-05-04 02:15:00,
2013-05-04 03:30:00,41.4,36.6,29.73,West,262,9.0,20.0,83,0.00,CLR,,0.00,WeatherDisplay:10.37,2013-05-04 02:30:00,
2013-05-04 03:45:00,41.2,36.5,29.73,WSW,258,8.0,12.0,83,0.00,CLR,,0.00,WeatherDisplay:10.37,2013-05-04 02:45:00,
2013-05-04 04:00:00,41.1,36.3,29.73,West,262,10.0,16.0,83,0.00,CLR,,0.00,WeatherDisplay:10.37,2013-05-04 03:00:00,
2013-05-04 04:15:00,41.0,36.2,29.74,WSW,255,7.0,16.0,83,0.00,CLR,,0.00,WeatherDisplay:10.37,2013-05-04 03:15:00,
2013-05-04 04:30:00,40.7,36.2,29.74,WSW,255,3.0,13.0,84,0.00,CLR,,0.00,WeatherDisplay:10.37,2013-05-04 03:30:00,
2013-05-04 04:45:00,40.6,36.1,29.73,West,264,8.0,13.0,84,0.00,CLR,,0.00,WeatherDisplay:10.37,2013-05-04 03:45:00,
2013-05-04 05:00:00,40.3,36.2,29.73,West,268,9.0,14.0,85,0.00,CLR,,0.00,WeatherDisplay:10.37,2013-05-04 04:00:00,
2013-05-04 05:15:00,40.3,36.4,29.73,West,270,7.0,15.0,86,0.00,CLR,,0.00,WeatherDisplay:10.37,2013-05-04 04:15:00,
2013-05-04 05:30:00,40.2,36.3,29.73,West,269,7.0,12.0,86,0.00,CLR,,0.00,WeatherDisplay:10.37,2013-05-04 04:30:00,
2013-05-04 05:45:00,40.2,36.1,29.74,West,266,8.0,18.0,85,0.00,CLR,,0.00,WeatherDisplay:10.37,2013-05-04 04:45:00,
2013-05-04 06:00:00,40.3,36.1,29.74,West,265,9.0,18.0,85,0.00,CLR,,0.00,WeatherDisplay:10.37,2013-05-04 05:00:00,
2013-05-04 06:15:00,40.4,36.2,29.74,West,267,10.0,17.0,85,0.00,CLR,,0.00,WeatherDisplay:10.37,2013-05-04 05:15:00,
2013-05-04 06:30:00,40.7,36.2,29.74,West,265,10.0,16.0,84,0.00,CLR,,0.00,WeatherDisplay:10.37,2013-05-04 05:30:00,
2013-05-04 06:45:00,41.1,36.6,29.75,West,267,8.0,17.0,84,0.00,CLR,,0.00,WeatherDisplay:10.37,2013-05-04 05:45:00,
2013-05-04 07:00:00,41.4,36.9,29.75,WSW,257,9.0,17.0,84,0.00,CLR,,0.00,WeatherDisplay:10.37,2013-05-04 06:00:00,
2013-05-04 07:15:00,41.5,36.7,29.74,WSW,258,7.0,12.0,83,0.00,CLR,,0.00,WeatherDisplay:10.37,2013-05-04 06:15:00,
2013-05-04 07:30:00,41.7,36.9,29.75,WSW,257,7.0,15.0,83,0.00,CLR,,0.00,WeatherDisplay:10.37,2013-05-04 06:30:00,
2013-05-04 07:45:00,42.0,36.9,29.76,West,264,10.0,20.0,82,0.00,CLR,,0.00,WeatherDisplay:10.37,2013-05-04 06:45:00,
2013-05-04 08:00:00,41.9,36.8,29.76,West,267,12.0,20.0,82,0.00,CLR,,0.00,WeatherDisplay:10.37,2013-05-04 07:00:00,
2013-05-04 08:15:00,42.2,37.1,29.76,West,264,9.0,20.0,82,0.00,CLR,,0.00,WeatherDisplay:10.37,2013-05-04 07:15:00,
2013-05-04 08:30:00,42.7,37.3,29.77,West,263,13.0,21.0,81,0.00,CLR,,0.00,WeatherDisplay:10.37,2013-05-04 07:30:00,
2013-05-04 08:45:00,43.3,37.6,29.77,West,263,9.0,17.0,80,0.00,CLR,,0.00,WeatherDisplay:10.37,2013-05-04 07:45:00,
2013-05-04 09:00:00,44.0,36.6,29.77,West,266,12.0,22.0,75,0.00,CLR,,0.00,WeatherDisplay:10.37,2013-05-04 08:00:00,
2013-05-04 09:15:00,44.4,35.9,29.77,West,266,12.0,18.0,72,0.00,CLR,,0.00,WeatherDisplay:10.37,2013-05-04 08:15:00,
2013-05-04 09:30:00,45.1,35.5,29.77,West,265,13.0,21.0,69,0.00,CLR,,0.00,WeatherDisplay:10.37,2013-05-04 08:30:00,
2013-05-04 09:45:00,45.5,35.5,29.77,West,261,13.0,22.0,68,0.00,CLR,,0.00,WeatherDisplay:10.37,2013-05-04 08:45:00,
2013-05-04 10:00:00,46.0,36.0,29.78,West,264,9.0,20.0,68,0.00,CLR,,0.00,WeatherDisplay:10.37,2013-05-04 09:00:00,
2013-05-04 10:15:00,46.5,36.2,29.77,West,263,9.0,21.0,67,0.00,CLR,,0.00,WeatherDisplay:10.37,2013-05-04 09:15:00,
2013-05-04 10:30:00,46.9,35.4,29.77,West,262,10.0,21.0,64,0.00,CLR,,0.00,WeatherDisplay:10.37,2013-05-04 09:30:00,
2013-05-04 10:45:00,47.5,35.1,29.77,West,265,12.0,17.0,62,0.00,CLR,,0.00,WeatherDisplay:10.37,2013-05-04 09:45:00,
2013-05-04 11:00:00,48.6,35.4,29.77,West,261,14.0,20.0,60,0.00,CLR,,0.00,WeatherDisplay:10.37,2013-05-04 10:00:00,
2013-05-04 11:15:00,48.7,35.0,29.77,West,265,15.0,24.0,59,0.00,CLR,,0.00,WeatherDisplay:10.37,2013-05-04 10:15:00,
2013-05-04 11:30:00,48.5,34.8,29.77,West,264,15.0,23.0,59,0.00,CLR,,0.00,WeatherDisplay:10.37,2013-05-04 10:30:00,
2013-05-04 11:45:00,48.9,35.6,29.77,West,262,12.0,21.0,60,0.00,CLR,,0.00,WeatherDisplay:10.37,2013-05-04 10:45:00,
2013-05-04 12:00:00,49.2,35.0,29.77,West,259,13.0,21.0,58,0.00,CLR,,0.00,WeatherDisplay:10.37,2013-05-04 11:00:00,
2013-05-04 12:15:00,49.9,35.7,29.77,West,259,12.0,20.0,58,0.00,CLR,,0.00,WeatherDisplay:10.37,2013-05-04 11:15:00,
2013-05-04 12:30:00,49.7,35.1,29.77,WSW,258,14.0,24.0,57,0.00,CLR,,0.00,WeatherDisplay:10.37,2013-05-04 11:30:00,
2013-05-04 13:00:00,49.8,33.3,29.77,West,261,14.0,26.0,53,0.00,CLR,,0.00,WeatherDisplay:10.37,2013-05-04 12:00:00,
2013-05-04 13:15:00,49.6,34.1,29.78,West,263,15.0,29.0,55,0.00,CLR,,0.00,WeatherDisplay:10.37,2013-05-04 12:15:00,
2013-05-04 13:30:00,48.9,38.4,29.78,WSW,256,16.0,26.0,67,0.00,CLR,,0.00,WeatherDisplay:10.37,2013-05-04 12:30:00,
2013-05-04 13:45:00,48.4,39.4,29.79,West,260,14.0,28.0,71,0.00,CLR,,0.00,WeatherDisplay:10.37,2013-05-04 12:45:00,
2013-05-04 14:00:00,48.6,39.3,29.79,West,264,13.0,23.0,70,0.00,CLR,,0.00,WeatherDisplay:10.37,2013-05-04 13:00:00,
2013-05-04 14:15:00,49.1,39.7,29.78,West,267,13.0,26.0,70,0.00,CLR,,0.00,WeatherDisplay:10.37,2013-05-04 13:15:00,
2013-05-04 14:30:00,49.2,39.8,29.78,West,259,14.0,27.0,70,0.00,CLR,,0.00,WeatherDisplay:10.37,2013-05-04 13:30:00,
2013-05-04 14:45:00,49.2,39.8,29.78,WSW,256,17.0,34.0,70,0.00,CLR,,0.00,WeatherDisplay:10.37,2013-05-04 13:45:00,
2013-05-04 15:00:00,49.2,39.8,29.78,West,259,16.0,29.0,70,0.00,CLR,,0.00,WeatherDisplay:10.37,2013-05-04 14:00:00,
2013-05-04 15:15:00,49.0,40.0,29.79,WSW,251,16.0,29.0,71,0.00,CLR,,0.00,WeatherDisplay:10.37,2013-05-04 14:15:00,
2013-05-04 15:30:00,48.7,40.4,29.79,WSW,248,13.0,28.0,73,0.00,CLR,,0.00,WeatherDisplay:10.37,2013-05-04 14:30:00,
2013-05-04 15:45:00,48.6,40.0,29.79,WSW,257,15.0,28.0,72,0.00,CLR,,0.00,WeatherDisplay:10.37,2013-05-04 14:45:00,
2013-05-04 16:00:00,48.8,40.1,29.79,WSW,253,13.0,23.0,72,0.00,CLR,,0.00,WeatherDisplay:10.37,2013-05-04 15:00:00,
2013-05-04 16:15:00,48.8,40.2,29.79,WSW,242,13.0,26.0,72,0.00,CLR,,0.00,WeatherDisplay:10.37,2013-05-04 15:15:00,
2013-05-04 16:30:00,49.3,40.6,29.79,WSW,251,13.0,30.0,72,0.00,CLR,,0.00,WeatherDisplay:10.37,2013-05-04 15:30:00,
2013-05-04 16:45:00,49.8,40.7,29.79,WSW,254,12.0,22.0,71,0.00,CLR,,0.00,WeatherDisplay:10.37,2013-05-04 15:45:00,
2013-05-04 17:00:00,49.9,41.2,29.79,WSW,248,13.0,28.0,72,0.00,CLR,,0.00,WeatherDisplay:10.37,2013-05-04 16:00:00,
2013-05-04 17:15:00,50.0,41.3,29.79,WSW,241,15.0,27.0,72,0.00,CLR,,0.00,WeatherDisplay:10.37,2013-05-04 16:15:00,
2013-05-04 17:30:00,50.2,41.8,29.80,WSW,254,13.0,23.0,73,0.00,CLR,,0.00,WeatherDisplay:10.37,2013-05-04 16:30:00,
2013-05-04 17:45:00,50.0,42.0,29.80,WSW,252,18.0,26.0,74,0.00,CLR,,0.00,WeatherDisplay:10.37,2013-05-04 16:45:00,
2013-05-04 18:00:00,50.1,42.1,29.80,WSW,254,16.0,32.0,74,0.00,CLR,,0.00,WeatherDisplay:10.37,2013-05-04 17:00:00,
2013-05-04 18:15:00,50.1,42.1,29.81,WSW,250,7.0,20.0,74,0.00,CLR,,0.00,WeatherDisplay:10.37,2013-05-04 17:15:00,
2013-05-04 18:30:00,50.2,42.2,29.81,WSW,243,10.0,25.0,74,0.00,CLR,,0.00,WeatherDisplay:10.37,2013-05-04 17:30:00,
2013-05-04 18:45:00,50.1,42.5,29.81,West,259,8.0,24.0,75,0.00,CLR,,0.00,WeatherDisplay:10.37,2013-05-04 17:45:00,
2013-05-04 19:00:00,50.1,42.5,29.81,West,261,14.0,25.0,75,0.00,CLR,,0.00,WeatherDisplay:10.37,2013-05-04 18:00:00,
2013-05-04 19:15:00,50.3,42.7,29.81,WSW,253,15.0,24.0,75,0.00,CLR,,0.00,WeatherDisplay:10.37,2013-05-04 18:15:00,
2013-05-04 19:30:00,50.4,42.4,29.81,WSW,258,14.0,26.0,74,0.00,CLR,,0.00,WeatherDisplay:10.37,2013-05-04 18:30:00,
2013-05-04 19:45:00,50.3,42.7,29.81,WSW,252,14.0,26.0,75,0.00,CLR,,0.00,WeatherDisplay:10.37,2013-05-04 18:45:00,
2013-05-04 20:00:00,50.4,42.8,29.81,WSW,255,12.0,22.0,75,0.00,CLR,,0.00,WeatherDisplay:10.37,2013-05-04 19:00:00,
2013-05-04 20:15:00,50.4,42.4,29.82,WSW,246,13.0,27.0,74,0.00,CLR,,0.00,WeatherDisplay:10.37,2013-05-04 19:15:00,
2013-05-04 20:30:00,50.5,42.6,29.82,WSW,244,12.0,22.0,74,0.00,CLR,,0.00,WeatherDisplay:10.37,2013-05-04 19:30:00,
2013-05-04 20:45:00,50.5,42.9,29.83,WSW,248,10.0,21.0,75,0.00,CLR,,0.00,WeatherDisplay:10.37,2013-05-04 19:45:00,
2013-05-04 21:00:00,50.5,42.9,29.84,WSW,248,6.0,15.0,75,0.00,CLR,,0.00,WeatherDisplay:10.37,2013-05-04 20:00:00,
2013-05-04 21:15:00,50.4,42.8,29.85,WSW,248,7.0,14.0,75,0.00,CLR,,0.00,WeatherDisplay:10.37,2013-05-04 20:15:00,
2013-05-04 21:30:00,50.4,43.1,29.85,SW,235,8.0,13.0,76,0.00,CLR,,0.00,WeatherDisplay:10.37,2013-05-04 20:30:00,
2013-05-04 21:45:00,50.3,43.0,29.85,WSW,254,9.0,14.0,76,0.00,CLR,,0.00,WeatherDisplay:10.37,2013-05-04 20:45:00,
2013-05-04 22:00:00,50.5,42.8,29.85,West,259,10.0,20.0,75,0.00,CLR,,0.00,WeatherDisplay:10.37,2013-05-04 21:00:00,
2013-05-04 22:15:00,50.4,42.8,29.85,West,259,8.0,16.0,75,0.00,CLR,,0.00,WeatherDisplay:10.37,2013-05-04 21:15:00,
2013-05-04 22:30:00,50.4,42.8,29.86,WSW,246,8.0,17.0,75,0.00,CLR,,0.00,WeatherDisplay:10.37,2013-05-04 21:30:00,
2013-05-04 22:45:00,50.1,42.8,29.86,West,259,6.0,16.0,76,0.00,CLR,,0.00,WeatherDisplay:10.37,2013-05-04 21:45:00,
2013-05-04 23:00:00,50.1,43.2,29.86,West,262,7.0,15.0,77,0.00,CLR,,0.00,WeatherDisplay:10.37,2013-05-04 22:00:00,
2013-05-04 23:15:00,50.0,43.1,29.87,West,259,7.0,15.0,77,0.00,CLR,,0.00,WeatherDisplay:10.37,2013-05-04 22:15:00,
2013-05-04 23:30:00,50.0,43.1,29.87,WSW,256,8.0,15.0,77,0.00,CLR,,0.00,WeatherDisplay:10.37,2013-05-04 22:30:00,
2013-05-04 23:45:00,50.1,43.2,29.87,West,261,9.0,18.0,77,0.00,CLR,,0.00,WeatherDisplay:10.37,2013-05-04 22:45:00,